Regional Weather Roundup
Issued by NWS State College, PA

Home | Current Version | Previous Version | Graphics & Text | Print | Product List | Glossary Off
Versions: 1 2 3 4 5 6 7 8 9 10 11 12 13 14 15 16 17 18 19 20 21 22 23 24 25 26 27 28 29 30 31 32 33 34 35 36 37 38 39 40 41 42 43 44 45 46 47 48 49 50

000
ASUS41 KCTP 220410
RWRCTP

REGIONAL WEATHER ROUNDUP
NATIONAL WEATHER SERVICE STATE COLLEGE PA
1200 AM EDT FRI MAY 22 2015

Note: "fair" indicates few or no clouds below 12,000 feet with no
significant weather and/or obstructions to visibility.

* = STATION THAT DOES NOT REPORT PRECIPITATION /E.G. RAIN...SNOW...ETC/
    THUNDER OR FOG.

PAZ002>004-007>009-013>016-020>023-029>032-220500-
WESTERN PENNSYLVANIA

CITY           SKY/WX    TMP DP  RH WIND       PRES   REMARKS
ERIE           CLEAR     51  35  54 SW10      29.96F
MEADVILLE      CLEAR     46  35  65 SW6       29.99S
FRANKLIN*      CLEAR     45  34  65 SW7       30.01S
NEW CASTLE     FAIR      45  42  89 CALM      30.03S
BEAVER COUNTY  NOT AVBL
BUTLER*        CLEAR     43  39  87 W3        30.04S
PITTSBURGH INT CLEAR     47  41  80 W5        30.04R
PITTSBURGH     PTCLDY    47  38  71 W7        30.03S
INDIANA*       CLOUDY    46  46 100 W5        30.06R
LATROBE        MOCLDY    46  46 100 S6        30.06R
WASHINGTON CO* CLEAR     43  39  87 CALM      30.07S
$$

PAZ004>006-010>012-017>019-024>028-033>037-041-042-045-046-049>053-220500-
CENTRAL PENNSYLVANIA

CITY           SKY/WX    TMP DP  RH WIND       PRES   REMARKS
BRADFORD       MOCLDY    46  31  55 W6        29.96S
DUBOIS         CLOUDY    45  42  89 SW6       29.98S
CLEARFIELD     CLOUDY    46  44  93 SW6       29.99R
JOHNSTOWN      CLOUDY    44  41  89 W7        30.00R
ALTOONA        CLOUDY    47  42  83 NW5       29.99S
STATE COLLEGE  LGT RAIN  47  45  91 SW3       29.97S
WILLIAMSPORT   CLOUDY    51  47  86 W10       29.93F
SELINSGROVE    CLOUDY    51  48  89 CALM      29.95F
FT INDIANTOWN  CLOUDY    53  46  78 W9        29.93S
CAPITAL CITY   CLOUDY    53  46  77 W7        29.95S
HARRISBURG     CLOUDY    54  47  77 NW13      29.94S
YORK           CLOUDY    52  48  86 W7        29.95S
$$

PAZ038>040-043-044-047-048-054-055-060>062-067>071-220500-
EASTERN PENNSYLVANIA

CITY           SKY/WX    TMP DP  RH WIND       PRES   REMARKS
SCRANTON       CLOUDY    51  43  74 SW6       29.90F
MOUNT POCONO   CLOUDY    47  41  80 NW9       29.88F
ALLENTOWN      CLOUDY    53  42  66 W3        29.90S
QUAKERTOWN*    CLOUDY    46  45  93 CALM      29.91S
READING        CLOUDY    54  44  69 NW5       29.91S
LANCASTER      CLOUDY    52  46  80 NW10      29.92S
COATESVILLE    MOCLDY    50  46  87 NW8       29.92S
POTTSTOWN      CLOUDY    48  46  93 CALM      29.92S
BLUE BELL      PTCLDY    48  46  93 CALM      29.90S
DOYLESTOWN     MOCLDY    48  46  93 CALM      29.90S
WILLOW GROVE   NOT AVBL
NORTH PHILA    PTCLDY    52  47  83 CALM      29.93R HAZE
PHILADELPHIA   CLOUDY    54  47  77 NW5       29.92S
$$


USA.gov is the U.S. government's official web portal to all federal, state and local government web resources and services.